Location: Cahoon Acres
(40.8736°N, 111.8994°W)
Time: 22:00:18
(UTC+00:00)

ISS - Visible Passes

Search period start: 24 July 2021 00:00
Search period end: 03 August 2021 00:00
Orbit: 419 x 421 km, 51.6° (Epoch: 24 July)

Date Brightness Start Highest point End Pass type
(mag) Time Alt. Az. Time Alt. Az. Time Alt. Az.
24 Jul -1.0 04:51:42 10° NNW 04:53:50 16° NNE 04:55:58 10° NE visible
24 Jul -1.2 06:28:01 10° NW 06:29:23 21° NW 06:29:23 21° NW visible
25 Jul -0.9 04:04:24 10° NNW 04:06:17 14° N 04:08:09 10° NE visible
25 Jul -2.0 05:40:49 10° NW 05:43:31 30° NNE 05:43:31 30° NNE visible
26 Jul -1.7 04:53:39 10° NW 04:56:26 23° NNE 04:57:41 19° NE visible
26 Jul -0.8 06:30:09 10° WNW 06:30:38 13° WNW 06:30:38 13° WNW visible
27 Jul -1.4 04:06:27 10° NNW 04:08:55 19° NNE 04:11:24 10° ENE visible
27 Jul -2.1 05:42:49 10° NW 05:44:50 33° NW 05:44:50 33° NW visible
28 Jul -1.2 03:19:13 10° NNW 03:21:22 16° NNE 03:23:31 10° NE visible
28 Jul -3.1 04:55:32 10° NW 04:58:49 47° NNE 04:59:05 46° NE visible
29 Jul -2.4 04:08:19 10° NW 04:11:23 32° NNE 04:13:21 18° E visible
29 Jul -1.3 05:45:07 10° WNW 05:46:18 19° W 05:46:18 19° W visible
30 Jul -1.9 03:21:06 10° NW 03:23:55 23° NNE 03:26:42 10° ENE visible
30 Jul -3.4 04:57:37 10° WNW 05:00:37 57° WSW 05:00:37 57° WSW visible
31 Jul -3.8 04:10:14 10° NW 04:13:37 78° NE 04:14:59 33° ESE visible
01 Aug -3.1 03:22:56 10° NW 03:26:14 48° NNE 03:29:23 11° ESE visible
01 Aug -1.7 05:00:16 10° W 05:02:21 20° WSW 05:02:21 20° WSW visible
02 Aug -2.6 04:12:29 10° WNW 04:15:35 34° SW 04:16:49 25° S visible
